Starlink 3859

operational
NORAD ID: 52470 Int'l Des: 2022-049 Owner: SPXS Country: US Constellation: starlink
LEOCIRCULAR

Über Starlink 3859

Beschreibung wird geladen...

Live-Position

3D-Globus wird geladen...

Nächste Überflüge

Höhenverlauf

Altitude vs Time

uPlot chart will show altitude changes over time

Zweizeiliger Elementsatz

1 52470U 22049V 25258.37169341 .00000266 00000-0 34789-4 0 9990
2 52470 53.2165 126.1561 0001394 85.7286 274.3866 15.08842004185784
Epoch: 15. Sept. 2025 • Age: 21 hours

Aktueller Status

Höhe 545.2 km
Geschwindigkeit 7.60 km/s
Subsatellitenpunkt 52.60°N, 139.9°E
Startdatum 6. Mai 2022
Alter 3.3 years
Typ internet

Technische Details

Klassifizierung Payload
Masse 297.00 kg
Trockenmasse 220.00 kg
Gesamtmasse 297.00 kg
Länge 0.20 m
Durchmesser 2.80 m
Spannweite 9.00 m
Form Box + pan
Hersteller SPXS
Bus-Typ Starlink
Phasenstatus In Orbit
Besitzer/Staat SPXS/US

Große Konstellationen

Loading constellations...